Time,TemperatureF,DewpointF,PressureIn,WindDirection,WindDirectionDegrees,WindSpeedMPH,WindSpeedGustMPH,Humidity,HourlyPrecipIn,Conditions,Clouds,dailyrainin,SoftwareType,DateUTC
2013-05-20 00:02:00,40.8,28.0,29.82,SW,225,9.0,20.0,60,0.00,,,0.00,meteohub,2013-05-20 06:02:00,
2013-05-20 00:07:00,40.8,28.0,29.82,SW,225,9.0,20.0,60,0.00,,,0.00,meteohub,2013-05-20 06:07:00,
2013-05-20 00:12:00,40.6,28.2,29.82,NW,315,11.0,20.0,61,0.00,,,0.00,meteohub,2013-05-20 06:12:00,
2013-05-20 00:17:00,40.6,28.2,29.82,NW,315,8.0,17.0,61,0.00,,,0.00,meteohub,2013-05-20 06:17:00,
2013-05-20 00:22:00,40.5,28.0,29.81,South,180,13.0,17.0,61,0.00,,,0.00,meteohub,2013-05-20 06:22:00,
2013-05-20 00:27:00,40.5,28.0,29.82,ENE,68,8.0,18.0,61,0.00,,,0.00,meteohub,2013-05-20 06:27:00,
2013-05-20 00:32:00,40.3,28.2,29.82,SW,225,8.0,18.0,62,0.00,,,0.00,meteohub,2013-05-20 06:32:00,
2013-05-20 00:37:00,40.3,28.2,29.83,North,0,8.0,18.0,62,0.00,,,0.00,meteohub,2013-05-20 06:37:00,
2013-05-20 00:42:00,40.1,28.0,29.83,South,180,11.0,17.0,62,0.00,,,0.00,meteohub,2013-05-20 06:42:00,
2013-05-20 00:47:00,39.9,28.0,29.83,NW,315,7.0,15.0,62,0.00,,,0.00,meteohub,2013-05-20 06:47:00,
2013-05-20 00:52:00,39.9,27.5,29.83,South,180,14.0,15.0,61,0.00,,,0.00,meteohub,2013-05-20 06:52:00,
2013-05-20 00:57:00,40.1,27.3,29.82,SW,225,9.0,17.0,60,0.00,,,0.00,meteohub,2013-05-20 06:57:00,
2013-05-20 01:02:00,40.1,27.0,29.83,NE,45,15.0,17.0,59,0.00,,,0.00,meteohub,2013-05-20 07:02:00,
2013-05-20 01:07:00,40.1,27.0,29.82,NE,45,15.0,17.0,59,0.00,,,0.00,meteohub,2013-05-20 07:07:00,
2013-05-20 01:12:00,40.6,26.6,29.81,NW,315,11.0,18.0,57,0.00,,,0.00,meteohub,2013-05-20 07:12:00,
2013-05-20 01:17:00,40.8,26.4,29.81,NW,315,14.0,18.0,56,0.00,,,0.00,meteohub,2013-05-20 07:17:00,
2013-05-20 01:22:00,40.8,26.8,29.81,NW,315,15.0,22.0,57,0.00,,,0.00,meteohub,2013-05-20 07:22:00,
2013-05-20 01:27:00,40.6,26.6,29.82,SW,225,14.0,22.0,57,0.00,,,0.00,meteohub,2013-05-20 07:27:00,
2013-05-20 01:32:00,40.8,26.8,29.80,North,0,15.0,22.0,57,0.00,,,0.00,meteohub,2013-05-20 07:32:00,
2013-05-20 01:37:00,40.8,26.8,29.81,West,270,7.0,17.0,57,0.00,,,0.00,meteohub,2013-05-20 07:37:00,
2013-05-20 01:42:00,40.6,26.6,29.81,NW,315,6.0,17.0,57,0.00,,,0.00,meteohub,2013-05-20 07:42:00,
2013-05-20 01:47:00,40.6,26.6,29.81,SE,135,8.0,15.0,57,0.00,,,0.00,meteohub,2013-05-20 07:47:00,
2013-05-20 01:52:00,40.6,26.6,29.81,SW,225,7.0,14.0,57,0.00,,,0.00,meteohub,2013-05-20 07:52:00,
2013-05-20 01:57:00,40.6,27.5,29.81,South,180,9.0,14.0,59,0.00,,,0.00,meteohub,2013-05-20 07:57:00,
2013-05-20 02:02:00,40.6,27.5,29.81,North,0,11.0,11.0,59,0.00,,,0.00,meteohub,2013-05-20 08:02:00,
2013-05-20 02:07:00,40.6,27.5,29.80,North,0,11.0,11.0,59,0.00,,,0.00,meteohub,2013-05-20 08:07:00,
2013-05-20 02:12:00,40.6,26.6,29.81,North,0,9.0,16.0,57,0.00,,,0.00,meteohub,2013-05-20 08:12:00,
2013-05-20 02:22:00,40.8,26.8,29.80,North,0,7.0,16.0,57,0.00,,,0.00,meteohub,2013-05-20 08:22:00,
2013-05-20 02:27:00,40.8,25.9,29.81,NW,315,14.0,15.0,55,0.00,,,0.00,meteohub,2013-05-20 08:27:00,
2013-05-20 02:32:00,41.0,26.1,29.80,North,0,7.0,15.0,55,0.00,,,0.00,meteohub,2013-05-20 08:32:00,
2013-05-20 02:37:00,41.0,27.0,29.81,SE,135,3.0,14.0,57,0.00,,,0.00,meteohub,2013-05-20 08:37:00,
2013-05-20 02:42:00,40.6,27.0,29.82,North,0,5.0,14.0,58,0.00,,,0.00,meteohub,2013-05-20 08:42:00,
2013-05-20 02:47:00,40.6,27.0,29.82,SE,135,5.0,14.0,58,0.00,,,0.00,meteohub,2013-05-20 08:47:00,
2013-05-20 02:52:00,40.5,27.3,29.81,NE,45,4.0,14.0,59,0.00,,,0.00,meteohub,2013-05-20 08:52:00,
2013-05-20 02:57:00,40.5,27.3,29.82,SE,135,3.0,14.0,59,0.00,,,0.00,meteohub,2013-05-20 08:57:00,
2013-05-20 03:02:00,40.5,27.3,29.82,South,180,4.0,10.0,59,0.00,,,0.00,meteohub,2013-05-20 09:02:00,
2013-05-20 03:07:00,40.5,27.3,29.83,South,180,4.0,10.0,59,0.00,,,0.00,meteohub,2013-05-20 09:07:00,
2013-05-20 03:12:00,40.3,27.5,29.82,SE,135,13.0,13.0,60,0.00,,,0.00,meteohub,2013-05-20 09:12:00,
2013-05-20 03:17:00,40.6,27.0,29.82,South,180,7.0,13.0,58,0.00,,,0.00,meteohub,2013-05-20 09:17:00,
2013-05-20 03:22:00,40.3,27.5,29.82,SE,135,9.0,13.0,60,0.00,,,0.00,meteohub,2013-05-20 09:22:00,
2013-05-20 03:27:00,40.5,27.7,29.83,NE,45,3.0,13.0,60,0.00,,,0.00,meteohub,2013-05-20 09:27:00,
2013-05-20 03:32:00,40.3,27.9,29.83,SE,135,4.0,9.0,61,0.00,,,0.00,meteohub,2013-05-20 09:32:00,
2013-05-20 03:37:00,40.1,30.0,29.84,West,270,6.0,9.0,67,0.00,,,0.00,meteohub,2013-05-20 09:37:00,
2013-05-20 03:42:00,39.6,30.2,29.85,WSW,248,2.0,6.0,69,0.00,,,0.00,meteohub,2013-05-20 09:42:00,
2013-05-20 03:47:00,39.0,30.7,29.86,NNW,338,4.0,6.0,72,0.00,,,0.00,meteohub,2013-05-20 09:47:00,
2013-05-20 03:52:00,38.8,31.3,29.86,NE,45,2.0,6.0,74,0.00,,,0.00,meteohub,2013-05-20 09:52:00,
2013-05-20 03:57:00,38.5,31.3,29.88,NE,45,2.0,4.0,75,0.00,,,0.00,meteohub,2013-05-20 09:57:00,
2013-05-20 04:02:00,38.3,31.6,29.87,North,0,3.0,4.0,77,0.00,,,0.00,meteohub,2013-05-20 10:02:00,
2013-05-20 04:07:00,38.3,31.6,29.88,North,0,3.0,4.0,77,0.00,,,0.00,meteohub,2013-05-20 10:07:00,
2013-05-20 04:12:00,37.9,31.6,29.88,North,0,2.0,4.0,78,0.00,,,0.00,meteohub,2013-05-20 10:12:00,
2013-05-20 04:17:00,37.8,31.8,29.89,West,270,2.0,3.0,79,0.00,,,0.00,meteohub,2013-05-20 10:17:00,
2013-05-20 04:22:00,37.8,31.8,29.89,NE,45,2.0,3.0,79,0.00,,,0.00,meteohub,2013-05-20 10:22:00,
2013-05-20 04:27:00,37.8,31.8,29.89,East,90,1.0,3.0,79,0.00,,,0.00,meteohub,2013-05-20 10:27:00,
2013-05-20 04:32:00,37.6,31.6,29.89,East,90,1.0,3.0,79,0.00,,,0.00,meteohub,2013-05-20 10:32:00,
2013-05-20 04:37:00,37.6,31.6,29.89,East,90,0.0,3.0,79,0.00,,,0.00,meteohub,2013-05-20 10:37:00,
2013-05-20 04:42:00,37.4,31.8,29.89,South,180,2.0,2.0,80,0.00,,,0.00,meteohub,2013-05-20 10:42:00,
2013-05-20 04:47:00,37.2,32.0,29.90,South,180,0.0,2.0,81,0.00,,,0.00,meteohub,2013-05-20 10:47:00,
2013-05-20 04:52:00,37.2,32.2,29.90,North,0,0.0,2.0,82,0.00,,,0.00,meteohub,2013-05-20 10:52:00,
2013-05-20 04:57:00,37.0,32.0,29.90,NE,45,1.0,2.0,82,0.00,,,0.00,meteohub,2013-05-20 10:57:00,
2013-05-20 05:02:00,37.0,32.0,29.90,NE,45,1.0,2.0,82,0.00,,,0.00,meteohub,2013-05-20 11:02:00,
2013-05-20 05:07:00,37.0,32.0,29.90,NE,45,1.0,2.0,82,0.00,,,0.00,meteohub,2013-05-20 11:07:00,
2013-05-20 05:12:00,36.9,32.2,29.90,NE,45,1.0,1.0,83,0.00,,,0.00,meteohub,2013-05-20 11:12:00,
2013-05-20 05:22:00,36.7,32.4,29.90,SE,135,2.0,2.0,84,0.00,,,0.00,meteohub,2013-05-20 11:22:00,
2013-05-20 05:27:00,36.7,32.5,29.91,West,270,0.0,2.0,85,0.00,,,0.00,meteohub,2013-05-20 11:27:00,
2013-05-20 05:32:00,36.5,32.4,29.91,West,270,0.0,2.0,85,0.00,,,0.00,meteohub,2013-05-20 11:32:00,
2013-05-20 05:37:00,36.5,32.7,29.92,West,270,0.0,2.0,86,0.00,,,0.00,meteohub,2013-05-20 11:37:00,
2013-05-20 05:42:00,36.5,32.7,29.92,West,270,0.0,0.0,86,0.00,,,0.00,meteohub,2013-05-20 11:42:00,
2013-05-20 05:47:00,36.5,32.7,29.93,NE,45,1.0,0.0,86,0.00,,,0.00,meteohub,2013-05-20 11:47:00,
2013-05-20 05:52:00,36.5,32.7,29.93,South,180,2.0,2.0,86,0.00,,,0.00,meteohub,2013-05-20 11:52:00,
2013-05-20 05:57:00,36.5,32.7,29.93,North,0,0.0,2.0,86,0.00,,,0.00,meteohub,2013-05-20 11:57:00,
2013-05-20 06:02:00,36.5,32.7,29.93,SE,135,2.0,2.0,86,0.00,,,0.00,meteohub,2013-05-20 12:02:00,
2013-05-20 06:07:00,36.5,32.7,29.93,SE,135,2.0,2.0,86,0.00,,,0.00,meteohub,2013-05-20 12:07:00,
2013-05-20 06:12:00,36.5,33.1,29.93,SE,135,2.0,2.0,87,0.00,,,0.00,meteohub,2013-05-20 12:12:00,
2013-05-20 06:17:00,36.5,33.1,29.94,SW,225,0.0,3.0,87,0.00,,,0.00,meteohub,2013-05-20 12:17:00,
2013-05-20 06:22:00,36.5,32.7,29.93,South,180,2.0,3.0,86,0.00,,,0.00,meteohub,2013-05-20 12:22:00,
2013-05-20 06:27:00,36.3,32.5,29.94,SW,225,2.0,3.0,86,0.00,,,0.00,meteohub,2013-05-20 12:27:00,
2013-05-20 06:32:00,36.1,32.4,29.94,SW,225,2.0,3.0,86,0.00,,,0.00,meteohub,2013-05-20 12:32:00,
2013-05-20 06:37:00,36.1,32.4,29.94,South,180,2.0,3.0,86,0.00,,,0.00,meteohub,2013-05-20 12:37:00,
2013-05-20 06:42:00,36.1,32.4,29.94,South,180,2.0,3.0,86,0.00,,,0.00,meteohub,2013-05-20 12:42:00,
2013-05-20 06:47:00,36.3,32.9,29.94,SW,225,0.0,2.0,87,0.00,,,0.00,meteohub,2013-05-20 12:47:00,
2013-05-20 06:52:00,36.5,33.1,29.94,SW,225,0.0,2.0,87,0.00,,,0.00,meteohub,2013-05-20 12:52:00,
2013-05-20 06:57:00,36.9,33.4,29.94,SE,135,0.0,2.0,87,0.00,,,0.00,meteohub,2013-05-20 12:57:00,
2013-05-20 07:02:00,37.0,33.6,29.93,SW,225,2.0,2.0,87,0.00,,,0.00,meteohub,2013-05-20 13:02:00,
2013-05-20 07:07:00,37.0,33.6,29.93,SW,225,2.0,2.0,87,0.00,,,0.00,meteohub,2013-05-20 13:07:00,
2013-05-20 07:12:00,37.2,33.4,29.93,SE,135,0.0,2.0,86,0.00,,,0.00,meteohub,2013-05-20 13:12:00,
2013-05-20 07:17:00,37.0,33.3,29.93,SW,225,4.0,4.0,86,0.00,,,0.00,meteohub,2013-05-20 13:17:00,
2013-05-20 07:22:00,37.0,33.6,29.93,SW,225,2.0,4.0,87,0.01,,,0.01,meteohub,2013-05-20 13:22:00,
2013-05-20 07:27:00,37.0,33.6,29.93,SW,225,2.0,4.0,87,0.01,,,0.01,meteohub,2013-05-20 13:27:00,
2013-05-20 07:32:00,37.2,33.8,29.94,South,180,2.0,4.0,87,0.01,,,0.01,meteohub,2013-05-20 13:32:00,
2013-05-20 07:37:00,37.4,33.8,29.93,SE,135,2.0,2.0,87,0.01,,,0.01,meteohub,2013-05-20 13:37:00,
2013-05-20 07:42:00,37.4,33.8,29.93,South,180,2.0,3.0,87,0.01,,,0.01,meteohub,2013-05-20 13:42:00,
2013-05-20 07:47:00,37.8,34.2,29.92,SE,135,2.0,3.0,87,0.01,,,0.01,meteohub,2013-05-20 13:47:00,
2013-05-20 07:52:00,38.1,34.9,29.92,SE,135,3.0,3.0,88,0.01,,,0.01,meteohub,2013-05-20 13:52:00,
2013-05-20 07:57:00,38.3,34.5,29.92,South,180,3.0,3.0,86,0.01,,,0.01,meteohub,2013-05-20 13:57:00,
2013-05-20 08:07:00,38.3,34.5,29.91,SE,135,3.0,4.0,86,0.01,,,0.01,meteohub,2013-05-20 14:07:00,
2013-05-20 08:12:00,39.6,35.1,29.89,East,90,2.0,4.0,84,0.01,,,0.01,meteohub,2013-05-20 14:12:00,
2013-05-20 08:17:00,41.5,35.8,29.85,SE,135,3.0,4.0,80,0.01,,,0.01,meteohub,2013-05-20 14:17:00,
2013-05-20 08:22:00,42.8,35.1,29.83,East,90,4.0,5.0,74,0.00,,,0.01,meteohub,2013-05-20 14:22:00,
2013-05-20 08:27:00,44.6,35.8,29.79,East,90,2.0,6.0,71,0.00,,,0.01,meteohub,2013-05-20 14:27:00,
2013-05-20 08:32:00,45.0,35.4,29.79,NW,315,3.0,6.0,69,0.00,,,0.01,meteohub,2013-05-20 14:32:00,
2013-05-20 08:37:00,45.0,34.7,29.79,NW,315,2.0,6.0,67,0.00,,,0.01,meteohub,2013-05-20 14:37:00,
2013-05-20 08:42:00,46.4,34.5,29.76,SE,135,6.0,6.0,63,0.00,,,0.01,meteohub,2013-05-20 14:42:00,
2013-05-20 08:47:00,46.2,33.1,29.77,West,270,4.0,9.0,60,0.00,,,0.01,meteohub,2013-05-20 14:47:00,
2013-05-20 08:57:00,46.2,30.9,29.76,West,270,3.0,10.0,55,0.00,,,0.01,meteohub,2013-05-20 14:57:00,
2013-05-20 09:02:00,46.4,31.6,29.76,SW,225,7.0,10.0,56,0.00,,,0.01,meteohub,2013-05-20 15:02:00,
2013-05-20 09:07:00,46.4,31.6,29.76,SW,225,7.0,10.0,56,0.00,,,0.01,meteohub,2013-05-20 15:07:00,
2013-05-20 09:12:00,46.8,30.0,29.75,NW,315,11.0,11.0,52,0.00,,,0.01,meteohub,2013-05-20 15:12:00,
2013-05-20 09:17:00,46.0,29.8,29.76,NW,315,8.0,11.0,53,0.00,,,0.01,meteohub,2013-05-20 15:17:00,
2013-05-20 09:27:00,46.0,29.8,29.76,NE,45,9.0,12.0,53,0.00,,,0.01,meteohub,2013-05-20 15:27:00,
2013-05-20 09:32:00,46.0,29.5,29.77,West,270,9.0,13.0,52,0.00,,,0.01,meteohub,2013-05-20 15:32:00,
2013-05-20 09:37:00,46.4,30.2,29.76,SW,225,9.0,13.0,53,0.00,,,0.01,meteohub,2013-05-20 15:37:00,
2013-05-20 09:42:00,46.8,29.1,29.75,NW,315,12.0,17.0,50,0.00,,,0.01,meteohub,2013-05-20 15:42:00,
2013-05-20 09:47:00,47.7,29.5,29.74,SW,225,11.0,17.0,49,0.00,,,0.01,meteohub,2013-05-20 15:47:00,
2013-05-20 09:52:00,47.7,28.9,29.75,SW,225,16.0,17.0,48,0.00,,,0.01,meteohub,2013-05-20 15:52:00,
2013-05-20 09:57:00,48.7,29.8,29.72,South,180,12.0,17.0,48,0.00,,,0.01,meteohub,2013-05-20 15:57:00,
2013-05-20 10:02:00,49.5,31.1,29.71,SW,225,11.0,17.0,49,0.00,,,0.01,meteohub,2013-05-20 16:02:00,
2013-05-20 10:07:00,49.5,31.1,29.70,SW,225,11.0,17.0,49,0.00,,,0.01,meteohub,2013-05-20 16:07:00,
2013-05-20 10:12:00,50.9,29.8,29.68,North,0,10.0,12.0,44,0.00,,,0.01,meteohub,2013-05-20 16:12:00,
2013-05-20 10:17:00,51.4,29.1,29.67,NW,315,8.0,13.0,42,0.00,,,0.01,meteohub,2013-05-20 16:17:00,
2013-05-20 10:22:00,51.8,27.7,29.66,West,270,11.0,17.0,39,0.00,,,0.01,meteohub,2013-05-20 16:22:00,
2013-05-20 10:27:00,52.0,28.4,29.66,South,180,11.0,17.0,40,0.00,,,0.01,meteohub,2013-05-20 16:27:00,
2013-05-20 10:37:00,53.8,28.0,29.63,SSW,203,11.0,14.0,37,0.00,,,0.01,meteohub,2013-05-20 16:37:00,
2013-05-20 10:42:00,54.9,30.9,29.61,NNE,23,4.0,14.0,40,0.00,,,0.01,meteohub,2013-05-20 16:42:00,
2013-05-20 10:47:00,56.1,28.0,29.59,NE,45,11.0,14.0,34,0.00,,,0.01,meteohub,2013-05-20 16:47:00,
2013-05-20 10:52:00,54.9,27.0,29.61,East,90,8.0,14.0,34,0.00,,,0.01,meteohub,2013-05-20 16:52:00,
2013-05-20 10:57:00,53.1,27.5,29.65,NW,315,11.0,13.0,37,0.00,,,0.01,meteohub,2013-05-20 16:57:00,
2013-05-20 11:02:00,52.0,28.4,29.67,West,270,8.0,13.0,40,0.00,,,0.01,meteohub,2013-05-20 17:02:00,
2013-05-20 11:07:00,52.0,28.4,29.67,West,270,8.0,13.0,40,0.00,,,0.01,meteohub,2013-05-20 17:07:00,
2013-05-20 11:12:00,51.8,28.8,29.67,NW,315,9.0,12.0,41,0.00,,,0.01,meteohub,2013-05-20 17:12:00,
2013-05-20 11:17:00,52.0,28.9,29.67,South,180,6.0,9.0,41,0.00,,,0.01,meteohub,2013-05-20 17:17:00,
2013-05-20 11:27:00,51.8,28.8,29.67,SE,135,8.0,13.0,41,0.00,,,0.01,meteohub,2013-05-20 17:27:00,
2013-05-20 11:32:00,53.1,29.3,29.65,NE,45,8.0,13.0,40,0.00,,,0.01,meteohub,2013-05-20 17:32:00,
2013-05-20 11:37:00,54.0,28.9,29.64,SE,135,3.0,13.0,38,0.00,,,0.01,meteohub,2013-05-20 17:37:00,
2013-05-20 11:42:00,52.9,28.6,29.66,South,180,7.0,11.0,39,0.00,,,0.01,meteohub,2013-05-20 17:42:00,
2013-05-20 11:47:00,51.6,28.8,29.68,West,270,11.0,14.0,41,0.00,,,0.01,meteohub,2013-05-20 17:47:00,
2013-05-20 11:52:00,49.8,29.8,29.72,North,0,8.0,14.0,46,0.00,,,0.01,meteohub,2013-05-20 17:52:00,
2013-05-20 11:57:00,48.7,30.9,29.74,NW,315,9.0,14.0,50,0.00,,,0.01,meteohub,2013-05-20 17:57:00,
2013-05-20 12:02:00,48.9,31.1,29.73,South,180,8.0,14.0,50,0.00,,,0.01,meteohub,2013-05-20 18:02:00,
2013-05-20 12:07:00,48.9,31.1,29.73,South,180,8.0,14.0,50,0.00,,,0.01,meteohub,2013-05-20 18:07:00,
2013-05-20 12:12:00,50.2,30.7,29.71,SW,225,11.0,14.0,47,0.00,,,0.01,meteohub,2013-05-20 18:12:00,
2013-05-20 12:17:00,50.2,31.3,29.71,SW,225,9.0,14.0,48,0.00,,,0.01,meteohub,2013-05-20 18:17:00,
2013-05-20 12:22:00,49.8,31.5,29.72,SSW,203,9.0,14.0,49,0.00,,,0.01,meteohub,2013-05-20 18:22:00,
2013-05-20 12:27:00,50.5,32.0,29.71,SW,225,8.0,13.0,49,0.00,,,0.01,meteohub,2013-05-20 18:27:00,
2013-05-20 12:32:00,50.2,31.3,29.71,South,180,12.0,15.0,48,0.00,,,0.01,meteohub,2013-05-20 18:32:00,
2013-05-20 12:37:00,50.9,29.8,29.70,NE,45,7.0,15.0,44,0.00,,,0.01,meteohub,2013-05-20 18:37:00,
2013-05-20 12:42:00,52.9,29.8,29.66,NE,45,6.0,15.0,41,0.00,,,0.01,meteohub,2013-05-20 18:42:00,
2013-05-20 12:47:00,54.9,30.9,29.63,South,180,8.0,12.0,40,0.00,,,0.01,meteohub,2013-05-20 18:47:00,
2013-05-20 12:52:00,51.6,29.8,29.68,South,180,11.0,11.0,43,0.00,,,0.01,meteohub,2013-05-20 18:52:00,
2013-05-20 12:57:00,51.3,30.0,29.70,NW,315,4.0,11.0,44,0.00,,,0.01,meteohub,2013-05-20 18:57:00,
2013-05-20 13:02:00,51.6,30.4,29.69,NE,45,5.0,11.0,44,0.00,,,0.01,meteohub,2013-05-20 19:02:00,
2013-05-20 13:07:00,51.6,30.4,29.69,NE,45,5.0,11.0,44,0.00,,,0.01,meteohub,2013-05-20 19:07:00,
2013-05-20 13:12:00,51.6,30.4,29.70,NW,315,3.0,10.0,44,0.00,,,0.01,meteohub,2013-05-20 19:12:00,
2013-05-20 13:17:00,51.8,31.1,29.69,WNW,293,8.0,9.0,45,0.00,,,0.01,meteohub,2013-05-20 19:17:00,
2013-05-20 13:22:00,51.1,33.6,29.71,SE,135,7.0,9.0,51,0.00,,,0.01,meteohub,2013-05-20 19:22:00,
2013-05-20 13:27:00,48.0,33.4,29.77,NW,315,5.0,15.0,57,0.00,,,0.01,meteohub,2013-05-20 19:27:00,
2013-05-20 13:32:00,47.7,34.0,29.76,SSE,158,6.0,15.0,59,0.00,,,0.01,meteohub,2013-05-20 19:32:00,
2013-05-20 13:37:00,48.9,33.4,29.75,East,90,8.0,15.0,55,0.00,,,0.01,meteohub,2013-05-20 19:37:00,
2013-05-20 13:42:00,50.7,32.7,29.72,SE,135,6.0,13.0,50,0.00,,,0.01,meteohub,2013-05-20 19:42:00,
2013-05-20 13:47:00,51.4,32.9,29.70,WSW,248,11.0,11.0,49,0.00,,,0.01,meteohub,2013-05-20 19:47:00,
2013-05-20 13:52:00,52.0,31.3,29.68,West,270,5.0,15.0,45,0.00,,,0.01,meteohub,2013-05-20 19:52:00,
2013-05-20 13:57:00,53.4,31.5,29.65,South,180,14.0,15.0,43,0.00,,,0.01,meteohub,2013-05-20 19:57:00,
2013-05-20 14:02:00,53.8,31.3,29.64,NW,315,12.0,14.0,42,0.00,,,0.01,meteohub,2013-05-20 20:02:00,
2013-05-20 14:07:00,53.8,31.3,29.64,NW,315,12.0,14.0,42,0.00,,,0.01,meteohub,2013-05-20 20:07:00,
2013-05-20 14:12:00,55.8,29.1,29.62,NE,45,10.0,14.0,36,0.00,,,0.01,meteohub,2013-05-20 20:12:00,
2013-05-20 14:17:00,56.3,30.4,29.61,WSW,248,10.0,12.0,37,0.00,,,0.01,meteohub,2013-05-20 20:17:00,
2013-05-20 14:22:00,54.7,28.9,29.63,South,180,6.0,12.0,37,0.00,,,0.01,meteohub,2013-05-20 20:22:00,
2013-05-20 14:27:00,55.4,29.5,29.62,North,0,7.0,11.0,37,0.00,,,0.01,meteohub,2013-05-20 20:27:00,
2013-05-20 14:32:00,56.8,27.3,29.60,SE,135,3.0,11.0,32,0.00,,,0.01,meteohub,2013-05-20 20:32:00,
2013-05-20 14:37:00,56.1,27.3,29.62,WNW,293,8.0,11.0,33,0.00,,,0.01,meteohub,2013-05-20 20:37:00,
2013-05-20 14:42:00,53.2,28.9,29.67,ESE,113,8.0,10.0,39,0.00,,,0.01,meteohub,2013-05-20 20:42:00,
2013-05-20 14:47:00,50.9,32.9,29.73,NW,315,14.0,14.0,50,0.00,,,0.01,meteohub,2013-05-20 20:47:00,
2013-05-20 14:52:00,46.8,34.0,29.80,NE,45,8.0,14.0,61,0.00,,,0.01,meteohub,2013-05-20 20:52:00,
2013-05-20 14:57:00,44.6,35.8,29.85,NW,315,4.0,14.0,71,0.00,,,0.01,meteohub,2013-05-20 20:57:00,
2013-05-20 15:02:00,44.2,36.1,29.86,NW,315,3.0,14.0,73,0.00,,,0.01,meteohub,2013-05-20 21:02:00,
2013-05-20 15:07:00,44.2,36.1,29.85,NW,315,3.0,14.0,73,0.00,,,0.01,meteohub,2013-05-20 21:07:00,
2013-05-20 15:12:00,46.2,37.4,29.81,South,180,8.0,8.0,71,0.01,,,0.02,meteohub,2013-05-20 21:12:00,
2013-05-20 15:17:00,46.8,36.0,29.79,SE,135,9.0,10.0,66,0.01,,,0.02,meteohub,2013-05-20 21:17:00,
2013-05-20 15:22:00,46.2,37.0,29.80,East,90,3.0,11.0,70,0.01,,,0.02,meteohub,2013-05-20 21:22:00,
2013-05-20 15:27:00,47.5,36.3,29.78,South,180,10.0,11.0,65,0.01,,,0.02,meteohub,2013-05-20 21:27:00,
2013-05-20 15:32:00,48.6,35.8,29.76,SSW,203,9.0,11.0,61,0.01,,,0.02,meteohub,2013-05-20 21:32:00,
2013-05-20 15:37:00,49.1,35.8,29.74,West,270,7.0,10.0,60,0.01,,,0.02,meteohub,2013-05-20 21:37:00,
2013-05-20 15:42:00,50.2,35.1,29.72,West,270,8.0,17.0,56,0.01,,,0.02,meteohub,2013-05-20 21:42:00,
2013-05-20 15:52:00,47.5,33.8,29.78,South,180,6.0,13.0,59,0.01,,,0.02,meteohub,2013-05-20 21:52:00,
2013-05-20 15:57:00,47.5,34.7,29.78,NW,315,4.0,10.0,61,0.01,,,0.02,meteohub,2013-05-20 21:57:00,
2013-05-20 16:02:00,48.0,34.0,29.77,NW,315,7.0,9.0,58,0.01,,,0.02,meteohub,2013-05-20 22:02:00,
2013-05-20 16:07:00,48.0,34.0,29.77,NW,315,7.0,10.0,58,0.01,,,0.02,meteohub,2013-05-20 22:07:00,
2013-05-20 16:12:00,50.4,32.0,29.73,South,180,5.0,10.0,49,0.00,,,0.02,meteohub,2013-05-20 22:12:00,
2013-05-20 16:17:00,49.6,32.7,29.74,North,0,4.0,9.0,52,0.00,,,0.02,meteohub,2013-05-20 22:17:00,
2013-05-20 16:22:00,48.7,32.4,29.76,West,270,4.0,9.0,53,0.00,,,0.02,meteohub,2013-05-20 22:22:00,
2013-05-20 16:27:00,48.7,31.8,29.75,NE,45,8.0,8.0,52,0.00,,,0.02,meteohub,2013-05-20 22:27:00,
2013-05-20 16:32:00,47.7,31.3,29.78,North,0,9.0,9.0,53,0.00,,,0.02,meteohub,2013-05-20 22:32:00,
2013-05-20 16:37:00,46.9,31.1,29.79,North,0,4.0,11.0,54,0.00,,,0.02,meteohub,2013-05-20 22:37:00,
2013-05-20 16:42:00,46.8,30.6,29.79,NE,45,9.0,13.0,53,0.00,,,0.02,meteohub,2013-05-20 22:42:00,
2013-05-20 16:47:00,46.4,30.2,29.80,NW,315,4.0,13.0,53,0.00,,,0.02,meteohub,2013-05-20 22:47:00,
2013-05-20 16:57:00,47.1,29.5,29.78,NE,45,4.0,9.0,50,0.00,,,0.02,meteohub,2013-05-20 22:57:00,
2013-05-20 17:02:00,47.3,29.1,29.78,North,0,6.0,6.0,49,0.00,,,0.02,meteohub,2013-05-20 23:02:00,
2013-05-20 17:07:00,47.3,29.1,29.78,North,0,6.0,6.0,49,0.00,,,0.02,meteohub,2013-05-20 23:07:00,
2013-05-20 17:12:00,47.8,29.1,29.77,North,0,4.0,6.0,48,0.00,,,0.02,meteohub,2013-05-20 23:12:00,
2013-05-20 17:17:00,47.7,28.9,29.78,NW,315,7.0,7.0,48,0.00,,,0.02,meteohub,2013-05-20 23:17:00,
2013-05-20 17:22:00,47.7,28.4,29.78,NE,45,4.0,8.0,47,0.00,,,0.02,meteohub,2013-05-20 23:22:00,
2013-05-20 17:27:00,47.8,29.1,29.78,NW,315,4.0,8.0,48,0.00,,,0.02,meteohub,2013-05-20 23:27:00,
2013-05-20 17:32:00,48.2,30.4,29.77,North,0,4.0,8.0,50,0.00,,,0.02,meteohub,2013-05-20 23:32:00,
2013-05-20 17:37:00,48.2,30.9,29.78,North,0,3.0,6.0,51,0.00,,,0.02,meteohub,2013-05-20 23:37:00,
2013-05-20 17:42:00,48.0,28.8,29.78,NW,315,6.0,8.0,47,0.00,,,0.02,meteohub,2013-05-20 23:42:00,
2013-05-20 17:47:00,48.0,29.8,29.79,North,0,3.0,9.0,49,0.00,,,0.02,meteohub,2013-05-20 23:47:00,
2013-05-20 17:52:00,48.4,28.0,29.77,East,90,2.0,9.0,45,0.00,,,0.02,meteohub,2013-05-20 23:52:00,
2013-05-20 17:57:00,48.4,28.6,29.78,North,0,7.0,7.0,46,0.00,,,0.02,meteohub,2013-05-20 23:57:00,
2013-05-20 18:02:00,48.0,28.8,29.79,NW,315,2.0,7.0,47,0.00,,,0.02,meteohub,2013-05-21 00:02:00,
2013-05-20 18:07:00,48.0,28.8,29.79,NW,315,2.0,7.0,47,0.00,,,0.02,meteohub,2013-05-21 00:07:00,
2013-05-20 18:12:00,46.8,29.7,29.81,South,180,3.0,7.0,51,0.00,,,0.02,meteohub,2013-05-21 00:12:00,
2013-05-20 18:17:00,46.8,28.0,29.81,NE,45,4.0,5.0,48,0.00,,,0.02,meteohub,2013-05-21 00:17:00,
2013-05-20 18:22:00,46.4,26.8,29.82,NW,315,11.0,11.0,46,0.00,,,0.02,meteohub,2013-05-21 00:22:00,
2013-05-20 18:27:00,46.0,27.9,29.83,SW,225,4.0,11.0,49,0.00,,,0.02,meteohub,2013-05-21 00:27:00,
2013-05-20 18:32:00,45.9,27.9,29.83,North,0,3.0,11.0,49,0.00,,,0.02,meteohub,2013-05-21 00:32:00,
2013-05-20 18:37:00,45.9,27.9,29.83,NW,315,2.0,11.0,49,0.00,,,0.02,meteohub,2013-05-21 00:37:00,
2013-05-20 18:42:00,45.7,28.0,29.83,NNW,338,7.0,11.0,50,0.00,,,0.02,meteohub,2013-05-21 00:42:00,
2013-05-20 18:47:00,45.1,27.7,29.84,SE,135,7.0,11.0,50,0.00,,,0.02,meteohub,2013-05-21 00:47:00,
2013-05-20 18:52:00,45.5,28.4,29.84,ENE,68,7.0,11.0,51,0.00,,,0.02,meteohub,2013-05-21 00:52:00,
2013-05-20 18:57:00,47.1,28.4,29.81,South,180,8.0,11.0,48,0.00,,,0.02,meteohub,2013-05-21 00:57:00,
2013-05-20 19:02:00,47.7,28.4,29.80,SW,225,6.0,11.0,47,0.00,,,0.02,meteohub,2013-05-21 01:02:00,
2013-05-20 19:07:00,47.7,28.4,29.80,SW,225,6.0,8.0,47,0.00,,,0.02,meteohub,2013-05-21 01:07:00,
2013-05-20 19:12:00,46.4,28.2,29.83,West,270,3.0,8.0,49,0.00,,,0.02,meteohub,2013-05-21 01:12:00,
2013-05-20 19:17:00,45.9,27.3,29.83,East,90,4.0,6.0,48,0.00,,,0.02,meteohub,2013-05-21 01:17:00,
2013-05-20 19:22:00,45.5,27.0,29.85,South,180,7.0,7.0,48,0.00,,,0.02,meteohub,2013-05-21 01:22:00,
2013-05-20 19:27:00,44.8,24.8,29.86,SW,225,11.0,11.0,45,0.00,,,0.02,meteohub,2013-05-21 01:27:00,
2013-05-20 19:32:00,44.2,24.3,29.86,SW,225,8.0,13.0,45,0.00,,,0.02,meteohub,2013-05-21 01:32:00,
2013-05-20 19:37:00,44.1,22.5,29.88,NE,45,8.0,30.0,42,0.00,,,0.02,meteohub,2013-05-21 01:37:00,
2013-05-20 19:42:00,43.7,23.7,29.90,NW,315,4.0,30.0,45,0.00,,,0.02,meteohub,2013-05-21 01:42:00,
2013-05-20 19:47:00,43.7,23.7,29.90,West,270,4.0,30.0,45,0.00,,,0.02,meteohub,2013-05-21 01:47:00,
2013-05-20 19:52:00,43.5,22.5,29.90,West,270,8.0,12.0,43,0.00,,,0.02,meteohub,2013-05-21 01:52:00,
2013-05-20 19:57:00,43.5,21.9,29.89,West,270,9.0,12.0,42,0.00,,,0.02,meteohub,2013-05-21 01:57:00,
2013-05-20 20:02:00,43.2,22.6,29.90,NW,315,4.0,12.0,44,0.00,,,0.02,meteohub,2013-05-21 02:02:00,
2013-05-20 20:07:00,43.2,22.6,29.90,NW,315,4.0,12.0,44,0.00,,,0.02,meteohub,2013-05-21 02:07:00,
2013-05-20 20:12:00,42.3,24.4,29.92,NNW,338,4.0,9.0,49,0.00,,,0.02,meteohub,2013-05-21 02:12:00,
2013-05-20 20:17:00,41.7,23.9,29.93,East,90,2.0,4.0,49,0.00,,,0.02,meteohub,2013-05-21 02:17:00,
2013-05-20 20:22:00,41.5,24.3,29.94,SE,135,4.0,4.0,50,0.00,,,0.02,meteohub,2013-05-21 02:22:00,
2013-05-20 20:27:00,41.7,23.9,29.94,NE,45,2.0,4.0,49,0.00,,,0.02,meteohub,2013-05-21 02:27:00,
2013-05-20 20:37:00,41.2,24.4,29.95,SW,225,1.0,5.0,51,0.00,,,0.02,meteohub,2013-05-21 02:37:00,
2013-05-20 20:42:00,41.2,25.9,29.95,West,270,3.0,4.0,54,0.00,,,0.02,meteohub,2013-05-21 02:42:00,
2013-05-20 20:47:00,41.2,23.9,29.95,NW,315,4.0,4.0,50,0.00,,,0.02,meteohub,2013-05-21 02:47:00,
2013-05-20 20:52:00,41.4,23.7,29.95,East,90,4.0,5.0,49,0.00,,,0.02,meteohub,2013-05-21 02:52:00,
2013-05-20 20:57:00,41.5,24.8,29.95,SW,225,2.0,5.0,51,0.00,,,0.02,meteohub,2013-05-21 02:57:00,
2013-05-20 21:02:00,41.5,24.3,29.95,SE,135,3.0,5.0,50,0.00,,,0.02,meteohub,2013-05-21 03:02:00,
2013-05-20 21:07:00,41.5,24.3,29.96,SE,135,3.0,4.0,50,0.00,,,0.02,meteohub,2013-05-21 03:07:00,
2013-05-20 21:12:00,41.4,25.5,29.96,West,270,2.0,3.0,53,0.00,,,0.02,meteohub,2013-05-21 03:12:00,
2013-05-20 21:17:00,41.2,26.2,29.96,SW,225,5.0,5.0,55,0.00,,,0.02,meteohub,2013-05-21 03:17:00,
2013-05-20 21:22:00,40.8,26.8,29.97,East,90,2.0,5.0,57,0.00,,,0.02,meteohub,2013-05-21 03:22:00,
2013-05-20 21:27:00,40.6,27.5,29.98,SSE,158,2.0,5.0,59,0.00,,,0.02,meteohub,2013-05-21 03:27:00,
2013-05-20 21:32:00,40.3,27.1,29.99,West,270,3.0,5.0,59,0.00,,,0.02,meteohub,2013-05-21 03:32:00,
2013-05-20 21:37:00,40.3,27.1,29.99,South,180,4.0,4.0,59,0.00,,,0.02,meteohub,2013-05-21 03:37:00,
2013-05-20 21:42:00,40.5,26.4,29.98,East,90,2.0,9.0,57,0.00,,,0.02,meteohub,2013-05-21 03:42:00,
2013-05-20 21:47:00,40.5,24.6,29.99,South,180,5.0,9.0,53,0.00,,,0.02,meteohub,2013-05-21 03:47:00,
2013-05-20 21:52:00,40.3,24.4,29.99,West,270,3.0,11.0,53,0.00,,,0.02,meteohub,2013-05-21 03:52:00,
2013-05-20 21:57:00,39.7,24.1,30.00,NE,45,4.0,11.0,53,0.00,,,0.02,meteohub,2013-05-21 03:57:00,
2013-05-20 22:02:00,39.4,24.1,30.01,SE,135,2.0,11.0,54,0.00,,,0.02,meteohub,2013-05-21 04:02:00,
2013-05-20 22:07:00,39.4,24.1,30.01,SE,135,2.0,4.0,54,0.00,,,0.02,meteohub,2013-05-21 04:07:00,
2013-05-20 22:12:00,38.8,23.5,30.03,NE,45,2.0,6.0,54,0.00,,,0.02,meteohub,2013-05-21 04:12:00,
2013-05-20 22:17:00,38.8,23.5,30.02,East,90,2.0,6.0,54,0.00,,,0.02,meteohub,2013-05-21 04:17:00,
2013-05-20 22:22:00,38.8,23.2,30.02,ESE,113,4.0,6.0,53,0.00,,,0.02,meteohub,2013-05-21 04:22:00,
2013-05-20 22:27:00,39.0,23.7,30.02,NE,45,4.0,9.0,54,0.00,,,0.02,meteohub,2013-05-21 04:27:00,
2013-05-20 22:32:00,39.2,23.5,30.02,SW,225,4.0,9.0,53,0.00,,,0.02,meteohub,2013-05-21 04:32:00,
2013-05-20 22:37:00,39.0,23.7,30.02,SW,225,2.0,9.0,54,0.00,,,0.02,meteohub,2013-05-21 04:37:00,
2013-05-20 22:47:00,39.0,23.7,30.02,NE,45,1.0,5.0,54,0.00,,,0.02,meteohub,2013-05-21 04:47:00,
2013-05-20 22:52:00,39.0,24.3,30.02,SW,225,4.0,5.0,55,0.00,,,0.02,meteohub,2013-05-21 04:52:00,
2013-05-20 22:57:00,39.2,23.9,30.01,SW,225,4.0,5.0,54,0.00,,,0.02,meteohub,2013-05-21 04:57:00,
2013-05-20 23:02:00,39.2,23.9,30.01,East,90,3.0,8.0,54,0.00,,,0.02,meteohub,2013-05-21 05:02:00,
2013-05-20 23:07:00,39.2,23.9,30.01,East,90,3.0,8.0,54,0.00,,,0.02,meteohub,2013-05-21 05:07:00,
2013-05-20 23:12:00,39.2,24.4,30.01,North,0,4.0,8.0,55,0.00,,,0.02,meteohub,2013-05-21 05:12:00,
2013-05-20 23:17:00,39.2,23.9,30.01,East,90,2.0,7.0,54,0.00,,,0.02,meteohub,2013-05-21 05:17:00,
2013-05-20 23:22:00,38.8,24.4,30.02,North,0,2.0,7.0,56,0.00,,,0.02,meteohub,2013-05-21 05:22:00,
2013-05-20 23:27:00,38.7,24.3,30.02,South,180,2.0,7.0,56,0.00,,,0.02,meteohub,2013-05-21 05:27:00,
2013-05-20 23:32:00,38.7,24.3,30.02,South,180,2.0,4.0,56,0.00,,,0.02,meteohub,2013-05-21 05:32:00,
2013-05-20 23:37:00,38.5,24.1,30.02,SSE,158,4.0,4.0,56,0.00,,,0.02,meteohub,2013-05-21 05:37:00,
2013-05-20 23:47:00,38.1,23.9,30.04,NW,315,2.0,5.0,56,0.00,,,0.02,meteohub,2013-05-21 05:47:00,
2013-05-20 23:52:00,38.1,23.4,30.03,NE,45,0.0,5.0,55,0.00,,,0.02,meteohub,2013-05-21 05:52:00,
2013-05-20 23:57:00,37.9,22.8,30.03,North,0,8.0,8.0,54,0.00,,,0.02,meteohub,2013-05-21 05:57:00,